FFL869 KMSP-KGRB

Flight info

Callsign FFL869
Flight time 0h 39m
Altitude 23000
Route WLSTN7 GRB
Aircraft C750/M-SBDE3FGHIM1RWXYZ/LB1V2

Departure

Time 2026-04-26 01:44
Airport Minneapolis–Saint Paul International Airport / Wold–Chamberlain Field (KMSP)

Arrival

Time 2026-04-26 02:23
Airport Austin Straubel International Airport (KGRB)
Time Latitude Longitude Altitude Speed Heading
2026-04-26 01:33 44.87725 -93.21761 821 ft 0 kts 270°
2026-04-26 01:39 44.87728 -93.21770 821 ft 4 kts 300°
2026-04-26 01:39 44.87751 -93.21764 821 ft 5 kts 46°
2026-04-26 01:39 44.87790 -93.21685 821 ft 12 kts 55°
2026-04-26 01:39 44.87838 -93.21599 821 ft 11 kts 51°
2026-04-26 01:40 44.87820 -93.21500 821 ft 11 kts 121°
2026-04-26 01:40 44.87763 -93.21368 821 ft 21 kts 121°
2026-04-26 01:40 44.87690 -93.21200 822 ft 19 kts 121°
2026-04-26 01:40 44.87623 -93.21046 822 ft 18 kts 121°
2026-04-26 01:41 44.87561 -93.20902 822 ft 16 kts 121°
2026-04-26 01:41 44.87504 -93.20771 821 ft 15 kts 121°
2026-04-26 01:41 44.87429 -93.20675 821 ft 14 kts 146°
2026-04-26 01:41 44.87362 -93.20587 821 ft 13 kts 125°
2026-04-26 01:42 44.87317 -93.20487 821 ft 12 kts 121°
2026-04-26 01:42 44.87269 -93.20377 822 ft 15 kts 121°
2026-04-26 01:42 44.87234 -93.20258 822 ft 11 kts 77°
2026-04-26 01:42 44.87284 -93.20196 822 ft 9 kts 32°
2026-04-26 01:43 44.87344 -93.20152 823 ft 9 kts
2026-04-26 01:43 44.87389 -93.20205 823 ft 12 kts 302°
2026-04-26 01:43 44.87602 -93.20696 822 ft 111 kts 301°
2026-04-26 01:43 44.88088 -93.21833 1096 ft 145 kts 304°
2026-04-26 01:44 44.88626 -93.23102 1642 ft 161 kts 307°
2026-04-26 01:44 44.89472 -93.24303 2102 ft 187 kts 321°
2026-04-26 01:44 44.90504 -93.25616 2664 ft 212 kts 320°
2026-04-26 01:44 44.91873 -93.26590 3058 ft 238 kts 353°
2026-04-26 01:45 44.93505 -93.26077 3557 ft 256 kts 33°
2026-04-26 01:45 44.94734 -93.24262 4436 ft 260 kts 55°
2026-04-26 01:45 44.95799 -93.22133 5255 ft 270 kts 59°
2026-04-26 01:45 44.96906 -93.19933 6118 ft 279 kts 58°
2026-04-26 01:46 44.98056 -93.17743 6937 ft 289 kts 57°
2026-04-26 01:46 44.99272 -93.15431 7813 ft 298 kts 57°
2026-04-26 01:46 45.00476 -93.13106 8710 ft 306 kts 56°
2026-04-26 01:46 45.01786 -93.10567 9602 ft 316 kts 56°
2026-04-26 01:47 45.03104 -93.08027 10290 ft 328 kts 55°
2026-04-26 01:47 45.04485 -93.05364 10494 ft 354 kts 55°
2026-04-26 01:47 45.05924 -93.02581 10583 ft 379 kts 54°
2026-04-26 01:47 45.07494 -92.99545 11228 ft 384 kts 55°
2026-04-26 01:48 45.09079 -92.96479 11868 ft 390 kts 55°
2026-04-26 01:48 45.10609 -92.93509 12443 ft 397 kts 55°
2026-04-26 01:48 45.12248 -92.90327 13072 ft 403 kts 56°
2026-04-26 01:48 45.13812 -92.87287 13648 ft 409 kts 56°
2026-04-26 01:49 45.15498 -92.84007 14231 ft 414 kts 56°
2026-04-26 01:49 45.17172 -92.80747 14946 ft 414 kts 55°
2026-04-26 01:49 45.18868 -92.77440 15635 ft 416 kts 54°
2026-04-26 01:49 45.20571 -92.74115 16310 ft 417 kts 54°
2026-04-26 01:50 45.22278 -92.70778 17027 ft 419 kts 54°
2026-04-26 01:50 45.23981 -92.67413 17662 ft 422 kts 55°
2026-04-26 01:50 45.25225 -92.63847 18171 ft 426 kts 71°
2026-04-26 01:50 45.25949 -92.59927 18816 ft 426 kts 80°
2026-04-26 01:51 45.26523 -92.55788 19422 ft 429 kts 81°
2026-04-26 01:51 45.27092 -92.51667 20000 ft 433 kts 80°
2026-04-26 01:51 45.27698 -92.47454 20617 ft 437 kts 80°
2026-04-26 01:51 45.28312 -92.43210 21240 ft 441 kts 80°
2026-04-26 01:52 45.28914 -92.38924 21846 ft 445 kts 81°
2026-04-26 01:52 45.29516 -92.34591 22448 ft 449 kts 81°
2026-04-26 01:52 45.30129 -92.30230 23012 ft 453 kts 81°
2026-04-26 01:52 45.30757 -92.25771 23093 ft 469 kts 81°
2026-04-26 01:53 45.31393 -92.21209 23107 ft 485 kts 81°
2026-04-26 01:53 45.32055 -92.16441 23108 ft 499 kts 81°
2026-04-26 01:53 45.32736 -92.11539 23103 ft 511 kts 81°
2026-04-26 01:53 45.33422 -92.06601 23103 ft 509 kts 80°
2026-04-26 01:54 45.34104 -92.01668 23102 ft 508 kts 81°
2026-04-26 01:54 45.34778 -91.96744 23101 ft 508 kts 81°
2026-04-26 01:54 45.35450 -91.91823 23084 ft 507 kts 81°
2026-04-26 01:54 45.36113 -91.86976 23105 ft 506 kts 81°
2026-04-26 01:55 45.36781 -91.82066 23107 ft 506 kts 81°
2026-04-26 01:55 45.37447 -91.77148 23112 ft 507 kts 81°
2026-04-26 01:55 45.38111 -91.72227 23112 ft 507 kts 81°
2026-04-26 01:55 45.38774 -91.67303 23111 ft 507 kts 81°
2026-04-26 01:56 45.39435 -91.62383 23110 ft 507 kts 81°
2026-04-26 01:56 45.40092 -91.57460 23112 ft 506 kts 81°
2026-04-26 01:56 45.40747 -91.52542 23099 ft 504 kts 81°
2026-04-26 01:56 45.41386 -91.47716 23099 ft 504 kts 81°
2026-04-26 01:57 45.42035 -91.42818 23099 ft 503 kts 81°
2026-04-26 01:57 45.42681 -91.37922 23100 ft 503 kts 81°
2026-04-26 01:57 45.43324 -91.33027 23100 ft 503 kts 81°
2026-04-26 01:57 45.43965 -91.28125 23099 ft 503 kts 81°
2026-04-26 01:58 45.44604 -91.23229 23096 ft 503 kts 81°
2026-04-26 01:58 45.45242 -91.18324 23102 ft 503 kts 81°
2026-04-26 01:58 45.45874 -91.13429 23104 ft 502 kts 81°
2026-04-26 01:58 45.46231 -91.08550 23090 ft 500 kts 90°
2026-04-26 01:59 45.46060 -91.03625 23098 ft 497 kts 99°
2026-04-26 01:59 45.45382 -90.98823 23091 ft 493 kts 108°
2026-04-26 01:59 45.44224 -90.94260 23101 ft 489 kts 117°
2026-04-26 01:59 45.42629 -90.90002 23099 ft 485 kts 124°
2026-04-26 02:00 45.40898 -90.85877 23109 ft 486 kts 124°
2026-04-26 02:00 45.39182 -90.81735 23114 ft 486 kts 124°
2026-04-26 02:00 45.37468 -90.77595 23098 ft 487 kts 124°
2026-04-26 02:00 45.35730 -90.73450 23103 ft 489 kts 124°
2026-04-26 02:01 45.34009 -90.69358 23102 ft 489 kts 124°
2026-04-26 02:01 45.32276 -90.65207 23100 ft 489 kts 124°
2026-04-26 02:01 45.30541 -90.61055 23098 ft 489 kts 124°
2026-04-26 02:01 45.28800 -90.56919 23096 ft 488 kts 125°
2026-04-26 02:02 45.27053 -90.52778 23095 ft 488 kts 124°
2026-04-26 02:02 45.25312 -90.48640 23094 ft 488 kts 124°
2026-04-26 02:02 45.23567 -90.44495 23088 ft 488 kts 124°
2026-04-26 02:02 45.21821 -90.40367 23084 ft 488 kts 125°
2026-04-26 02:03 45.20096 -90.36298 23079 ft 490 kts 124°
2026-04-26 02:03 45.18337 -90.32146 23078 ft 489 kts 124°
2026-04-26 02:03 45.16590 -90.28024 23078 ft 489 kts 124°
2026-04-26 02:03 45.14835 -90.23895 23076 ft 488 kts 124°
2026-04-26 02:04 45.13082 -90.19779 23074 ft 488 kts 124°
2026-04-26 02:04 45.11326 -90.15661 23075 ft 488 kts 124°
2026-04-26 02:04 45.09566 -90.11537 23076 ft 488 kts 124°
2026-04-26 02:04 45.07811 -90.07431 23076 ft 488 kts 124°
2026-04-26 02:05 45.06077 -90.03382 23079 ft 488 kts 124°
2026-04-26 02:05 45.04316 -89.99276 23092 ft 488 kts 124°
2026-04-26 02:05 45.02549 -89.95158 23095 ft 491 kts 124°
2026-04-26 02:05 45.00776 -89.91035 23094 ft 490 kts 124°
2026-04-26 02:06 44.99008 -89.86928 23071 ft 489 kts 124°
2026-04-26 02:06 44.97241 -89.82835 23072 ft 488 kts 124°
2026-04-26 02:06 44.95475 -89.78745 23070 ft 488 kts 124°
2026-04-26 02:06 44.93706 -89.74652 22866 ft 486 kts 124°
2026-04-26 02:07 44.91966 -89.70641 22592 ft 484 kts 124°
2026-04-26 02:07 44.90212 -89.66605 22324 ft 482 kts 124°
2026-04-26 02:07 44.88468 -89.62586 22057 ft 480 kts 124°
2026-04-26 02:07 44.86729 -89.58582 21794 ft 477 kts 125°
2026-04-26 02:08 44.84997 -89.54608 21531 ft 475 kts 125°
2026-04-26 02:08 44.83268 -89.50647 21274 ft 473 kts 125°
2026-04-26 02:08 44.81550 -89.46712 21019 ft 471 kts 125°
2026-04-26 02:08 44.79834 -89.42789 20767 ft 469 kts 125°
2026-04-26 02:09 44.78147 -89.38938 20351 ft 468 kts 125°
2026-04-26 02:09 44.76452 -89.35070 19742 ft 461 kts 126°
2026-04-26 02:09 44.74775 -89.31251 19151 ft 456 kts 126°
2026-04-26 02:09 44.73117 -89.27481 18565 ft 451 kts 126°
2026-04-26 02:10 44.71472 -89.23745 17945 ft 447 kts 126°
2026-04-26 02:10 44.69835 -89.20038 17368 ft 446 kts 126°
2026-04-26 02:10 44.68206 -89.16350 16795 ft 443 kts 126°
2026-04-26 02:10 44.66585 -89.12679 16216 ft 441 kts 125°
2026-04-26 02:11 44.64991 -89.09077 15643 ft 438 kts 125°
2026-04-26 02:11 44.63385 -89.05455 15099 ft 436 kts 125°
2026-04-26 02:11 44.61787 -89.01854 14539 ft 434 kts 125°
2026-04-26 02:11 44.60194 -88.98268 13982 ft 432 kts 125°
2026-04-26 02:12 44.58612 -88.94711 13362 ft 428 kts 125°
2026-04-26 02:12 44.57090 -88.91283 12794 ft 398 kts 125°
2026-04-26 02:12 44.55683 -88.88120 12385 ft 369 kts 125°
2026-04-26 02:12 44.54364 -88.85170 11955 ft 346 kts 125°
2026-04-26 02:13 44.53118 -88.82392 11536 ft 328 kts 125°
2026-04-26 02:13 44.51949 -88.79781 11135 ft 314 kts 125°
2026-04-26 02:13 44.50806 -88.77227 10738 ft 306 kts 125°
2026-04-26 02:13 44.49679 -88.74714 10347 ft 303 kts 124°
2026-04-26 02:14 44.48565 -88.72231 9949 ft 300 kts 124°
2026-04-26 02:14 44.47460 -88.69768 9536 ft 297 kts 124°
2026-04-26 02:14 44.46366 -88.67333 9151 ft 294 kts 124°
2026-04-26 02:14 44.45281 -88.64919 8763 ft 292 kts 124°
2026-04-26 02:15 44.44204 -88.62526 8378 ft 290 kts 124°
2026-04-26 02:15 44.43150 -88.60184 8006 ft 288 kts 124°
2026-04-26 02:15 44.42087 -88.57827 7627 ft 285 kts 124°
2026-04-26 02:15 44.41034 -88.55493 7246 ft 283 kts 124°
2026-04-26 02:16 44.39995 -88.53189 6878 ft 275 kts 124°
2026-04-26 02:16 44.38993 -88.50971 6524 ft 265 kts 124°
2026-04-26 02:16 44.38026 -88.48830 6177 ft 256 kts 123°
2026-04-26 02:16 44.37113 -88.46814 5848 ft 236 kts 122°
2026-04-26 02:17 44.36345 -88.44865 5500 ft 222 kts 108°
2026-04-26 02:17 44.36299 -88.42821 5208 ft 210 kts 76°
2026-04-26 02:17 44.36896 -88.41012 4997 ft 204 kts 58°
2026-04-26 02:17 44.37613 -88.39326 4758 ft 196 kts 58°
2026-04-26 02:18 44.38277 -88.37736 4504 ft 184 kts 58°
2026-04-26 02:18 44.38916 -88.36204 4265 ft 181 kts 58°
2026-04-26 02:18 44.39549 -88.34690 4028 ft 179 kts 58°
2026-04-26 02:18 44.40175 -88.33193 3792 ft 177 kts 58°
2026-04-26 02:19 44.40796 -88.31709 3562 ft 177 kts 58°
2026-04-26 02:19 44.41405 -88.30247 3325 ft 177 kts 58°
2026-04-26 02:19 44.42023 -88.28764 3097 ft 176 kts 59°
2026-04-26 02:19 44.42638 -88.27292 2866 ft 174 kts 59°
2026-04-26 02:20 44.43249 -88.25829 2628 ft 174 kts 60°
2026-04-26 02:20 44.43855 -88.24373 2487 ft 170 kts 61°
2026-04-26 02:20 44.44421 -88.23014 2252 ft 148 kts 61°
2026-04-26 02:20 44.44899 -88.21868 2067 ft 130 kts 62°
2026-04-26 02:21 44.45350 -88.20780 1892 ft 128 kts 62°
2026-04-26 02:21 44.45792 -88.19721 1723 ft 128 kts 62°
2026-04-26 02:21 44.46242 -88.18635 1520 ft 130 kts 63°
2026-04-26 02:21 44.46698 -88.17539 1345 ft 131 kts 62°
2026-04-26 02:22 44.47156 -88.16436 1156 ft 131 kts 62°
2026-04-26 02:22 44.47611 -88.15350 983 ft 129 kts 62°
2026-04-26 02:22 44.48062 -88.14264 816 ft 128 kts 63°
2026-04-26 02:22 44.48496 -88.13194 695 ft 116 kts 57°
2026-04-26 02:23 44.48792 -88.12489 688 ft 54 kts 60°
2026-04-26 02:23 44.48912 -88.12197 707 ft 16 kts 59°
2026-04-26 02:23 44.48974 -88.12129 688 ft 10 kts
2026-04-26 02:23 44.49040 -88.12149 704 ft 9 kts 357°
2026-04-26 02:24 44.49081 -88.12098 690 ft 8 kts 60°
2026-04-26 02:24 44.49109 -88.12028 679 ft 11 kts 60°
2026-04-26 02:24 44.49165 -88.11894 680 ft 18 kts 60°
2026-04-26 02:24 44.49228 -88.11742 680 ft 18 kts 60°
2026-04-26 02:25 44.49287 -88.11599 693 ft 16 kts 59°
2026-04-26 02:25 44.49334 -88.11495 696 ft 8 kts 37°
2026-04-26 02:25 44.49379 -88.11494 692 ft 5 kts 26°
2026-04-26 02:25 44.49409 -88.11438 677 ft 9 kts 59°
2026-04-26 02:26 44.49458 -88.11399 704 ft 1 kts 360°